Theta_e
295 295 294 294 294 293 294 294 294 294 295 294 294 294 294 295 295 295 295 295 295 295 295 295 294 294 294 294 294 294 294 294 294 293 292 291 292 292 292 292 292 292 292 292 291 291 290 290 290 289 289 289 289 290 288 288 290 292 292 291 291 291 290 290 290 289 288 288 288 288 288 288 289 289 289 289 290 290 291 291 292 293 292 292 292 293 296
294 294 294 293 293 293 293 294 294 294 294 294 294 294 294 294 295 295 295 295 295 295 295 295 294 294 294 294 294 294 294 294 294 294 293 293 292 292 292 292 292 292 292 292 292 292 291 291 291 290 290 289 290 289 288 288 290 291 292 292 292 291 290 290 289 288 288 289 288 288 288 287 288 289 289 288 288 289 290 291 292 292 291 291 291 291 294
293 293 293 293 293 293 293 293 293 293 293 293 293 293 293 294 294 294 294 294 295 295 295 294 294 294 294 294 294 294 294 294 294 294 294 294 293 293 292 293 292 292 293 292 292 292 292 292 292 291 291 290 289 289 288 288 289 290 291 291 291 291 290 290 289 288 288 288 288 290 291 289 288 289 290 289 289 289 290 291 292 292 292 291 291 290 292
293 293 293 293 293 293 293 292 292 292 292 293 292 292 293 293 294 294 294 294 294 294 294 294 294 294 294 294 294 294 294 294 294 294 294 294 294 294 293 293 293 293 293 292 292 292 292 292 292 292 291 290 290 289 288 287 287 289 291 291 291 292 291 290 289 289 289 288 289 290 291 289 289 289 289 289 289 290 290 291 291 291 291 290 290 290 290
293 292 292 292 292 292 292 292 291 291 292 292 292 292 292 292 293 293 293 294 294 293 294 294 294 294 294 294 294 294 294 294 294 294 294 294 294 294 293 294 293 293 293 293 293 293 292 292 292 292 291 291 290 289 288 287 287 289 291 291 290 290 290 289 289 289 289 289 289 289 290 289 289 289 288 288 289 290 291 290 290 290 289 288 289 289 289
292 292 292 292 292 291 291 291 291 291 291 291 292 292 292 292 292 293 293 293 293 293 293 293 293 294 294 294 294 294 294 294 294 294 294 293 293 293 293 294 293 293 293 293 293 293 292 292 292 292 292 291 290 289 288 287 287 288 290 291 290 289 289 289 289 288 288 289 288 288 288 288 287 287 286 286 287 289 289 289 289 289 288 287 287 287 287
292 291 291 291 291 291 291 291 291 291 291 291 291 291 291 291 292 292 292 292 292 292 292 293 293 293 293 293 293 293 293 293 293 293 293 293 293 293 293 293 293 293 293 293 293 292 292 292 292 291 291 291 291 290 289 288 287 287 288 290 290 289 288 289 289 288 288 288 288 288 287 287 286 286 286 286 286 286 287 287 287 287 287 287 287 287 287
291 291 291 290 290 290 290 290 290 290 290 291 291 291 291 291 291 291 291 291 291 291 291 291 291 291 291 292 292 292 292 292 293 293 293 292 292 292 292 292 292 292 292 292 292 292 291 291 292 291 290 291 290 289 289 289 288 287 287 288 289 289 289 290 289 288 288 288 288 287 287 286 287 286 286 286 285 285 285 285 286 286 286 286 286 286 286
290 290 290 290 290 290 290 290 290 290 290 290 290 290 290 290 290 290 290 290 290 290 290 290 290 290 290 290 291 291 291 291 291 291 291 291 291 291 291 291 290 289 289 289 289 289 290 289 290 290 290 290 290 289 289 290 288 287 287 288 288 289 289 289 289 289 288 288 288 287 287 286 286 286 286 286 285 285 285 285 286 285 285 285 285 285 286
290 290 290 290 290 290 289 290 290 290 290 290 290 290 290 290 290 290 289 289 290 289 289 289 289 289 289 290 290 290 290 290 290 289 290 290 290 290 289 289 288 287 287 287 287 288 288 289 289 289 289 289 290 289 289 289 289 288 287 287 288 288 288 288 288 288 288 288 288 287 287 286 285 286 286 285 286 286 286 286 286 285 285 285 285 286 286
290 289 289 289 289 289 289 289 289 289 289 289 289 289 289 289 289 289 289 289 289 289 289 288 288 289 289 289 289 289 289 289 289 289 289 289 288 288 288 287 287 287 287 287 287 287 288 288 288 288 289 289 289 289 289 289 289 289 288 287 287 288 288 288 288 288 288 288 287 287 286 285 286 287 287 286 286 286 285 285 286 286 286 286 286 287 287
289 289 289 289 289 289 289 289 289 289 288 288 288 288 288 288 288 288 288 288 288 288 288 288 288 288 288 288 288 288 288 288 287 287 287 287 287 287 287 286 286 286 286 287 287 287 287 287 287 288 288 289 289 289 289 289 289 289 288 288 288 288 288 288 288 288 286 285 285 285 285 286 288 287 287 287 286 286 286 285 285 286 286 286 286 287 287
289 289 289 289 288 288 288 288 288 288 288 288 288 288 288 288 288 288 288 287 287 287 287 287 287 287 287 287 287 287 286 286 286 286 286 286 286 286 286 286 286 286 286 287 286 286 286 286 287 287 287 288 288 288 289 289 289 288 287 288 288 288 288 288 287 286 284 283 285 286 286 287 287 286 285 286 286 285 285 285 285 285 285 286 286 286 286
288 288 288 288 288 288 288 287 287 287 287 287 287 288 288 287 287 288 288 287 287 287 287 287 287 287 287 287 287 286 286 285 285 285 285 285 285 285 285 286 286 286 286 286 286 286 285 285 285 285 286 286 286 287 288 289 289 288 288 288 288 288 288 288 288 287 286 285 285 286 287 287 286 285 285 286 286 285 285 285 286 285 285 285 285 286 286
288 288 288 287 287 288 287 287 287 287 287 287 287 287 287 287 286 287 287 287 287 287 287 287 286 286 286 286 286 286 286 285 284 284 284 284 284 284 285 285 286 286 285 285 285 285 284 284 284 284 284 284 284 285 287 288 289 289 288 288 289 289 288 288 288 288 287 286 286 286 286 286 286 286 286 286 286 285 285 285 285 285 285 285 285 285 285
287 287 287 287 286 286 287 287 287 286 287 287 286 286 286 286 286 286 286 287 287 286 286 286 286 286 286 286 286 286 286 285 285 284 284 284 283 283 284 285 285 285 285 284 284 284 284 284 284 283 283 284 284 285 285 286 287 288 289 288 289 289 288 288 288 288 287 287 286 286 286 286 286 286 286 285 284 285 285 284 284 285 285 285 284 285 285
287 287 286 286 286 286 286 286 286 286 286 286 285 285 285 285 285 285 286 286 286 286 286 286 286 285 285 285 285 285 285 285 285 284 284 284 284 283 283 284 284 284 285 283 282 283 283 283 283 283 283 283 284 284 285 284 284 286 288 288 288 288 288 288 288 287 288 287 286 287 287 286 287 287 286 284 284 285 285 284 285 286 286 285 284 285 285
286 286 286 286 286 286 286 285 285 285 286 285 285 285 285 284 285 285 285 285 285 285 286 286 285 285 285 285 284 285 285 284 284 284 283 284 284 283 283 283 284 284 284 283 282 283 283 283 283 282 283 283 284 284 285 285 285 286 287 288 288 288 288 288 287 287 288 287 287 287 287 286 286 286 285 283 284 285 284 284 286 286 285 285 285 285 285
286 286 285 285 285 285 284 284 284 284 285 285 284 284 284 284 284 284 285 285 285 285 285 285 285 285 285 285 284 284 284 284 284 283 283 283 283 283 283 283 283 283 283 282 282 282 282 282 283 283 283 283 284 284 284 285 285 286 286 287 288 288 288 288 288 287 287 287 287 287 287 287 286 284 284 284 285 285 284 285 286 285 284 285 285 285 285
285 285 285 285 284 284 284 284 283 283 283 283 284 284 284 283 284 284 284 284 284 284 284 284 284 284 284 284 284 283 283 284 284 283 283 283 283 283 282 282 283 282 282 282 282 282 282 282 282 283 283 283 283 284 284 284 285 286 285 286 287 288 287 287 287 287 287 287 287 286 287 287 285 284 284 285 286 286 285 285 286 286 286 286 286 286 286
285 285 284 283 283 283 283 283 283 283 283 283 283 283 283 283 283 283 283 283 283 283 283 283 283 284 284 283 283 283 283 283 283 283 283 283 282 282 281 282 282 282 281 281 282 282 282 282 282 282 282 282 283 284 283 283 284 286 286 285 286 287 287 287 287 287 287 286 287 287 288 287 285 285 285 286 286 287 287 286 285 285 286 286 286 286 286
284 283 283 282 282 282 283 283 283 283 283 283 283 283 283 283 282 282 282 283 283 283 283 283 283 283 283 283 283 283 283 283 283 283 283 282 282 282 282 282 282 282 281 281 281 282 282 282 282 282 282 282 283 283 284 283 283 285 286 285 286 287 287 287 287 287 287 287 287 287 288 287 285 286 287 287 286 286 287 287 286 286 286 286 286 286 286
282 282 282 282 282 282 282 282 282 282 282 282 282 282 282 282 282 282 282 282 282 282 282 282 282 282 283 283 282 282 282 283 283 283 283 282 282 282 282 282 282 282 282 282 281 282 282 282 282 281 282 282 282 282 283 283 283 284 285 285 286 286 286 287 287 287 288 288 287 287 287 286 285 286 287 287 286 286 286 287 287 287 287 287 287 287 287
281 282 282 282 282 282 282 281 281 282 282 281 281 281 281 281 281 281 281 281 282 282 282 282 282 282 282 282 282 282 282 282 282 282 283 282 282 282 282 282 282 282 282 282 282 282 282 281 281 282 282 282 282 282 282 283 283 284 284 284 286 286 285 286 287 287 287 288 287 287 286 285 285 286 287 287 287 287 286 286 287 287 287 287 287 287 286
282 281 281 281 281 281 281 281 281 281 281 281 280 280 280 280 280 280 280 281 281 281 281 281 281 282 282 281 281 282 282 282 282 282 282 282 282 282 282 282 282 282 282 282 282 282 281 281 281 281 281 282 283 282 282 283 283 284 284 284 284 284 284 285 286 286 286 287 287 286 285 285 285 286 286 286 287 287 286 286 287 286 286 286 286 286 286
281 281 281 280 280 280 280 280 280 280 280 280 280 280 280 280 279 279 280 280 280 280 280 280 280 280 281 280 281 281 281 281 281 281 281 282 282 282 282 282 282 282 282 282 282 281 281 280 281 281 281 282 282 282 282 283 283 284 284 280 276 278 281 282 283 284 286 286 284 283 284 285 285 285 286 286 286 286 287 286 286 286 286 286 286 286 286
280 280 280 280 280 280 280 280 280 279 279 279 279 279 279 279 279 279 279 279 279 279 279 279 279 279 280 280 280 280 280 280 280 280 280 281 281 282 282 282 282 282 282 282 281 281 281 281 281 281 281 282 282 282 282 283 282 282 280 273 270 274 277 276 279 284 286 283 278 277 280 285 285 284 285 285 286 286 287 286 286 286 286 285 286 286 286
280 280 279 279 279 279 279 279 279 279 279 279 279 279 278 278 278 278 277 278 278 278 278 278 278 279 279 279 279 278 279 279 279 280 280 280 280 281 282 282 282 282 282 282 281 281 281 281 281 281 282 282 281 281 282 282 282 279 273 268 268 271 270 270 274 278 279 276 273 271 274 280 282 281 283 285 285 285 286 285 285 285 285 285 286 286 285
280 279 279 279 279 278 278 278 278 278 278 278 278 278 278 278 277 277 277 277 277 278 279 278 278 278 278 278 278 278 279 279 279 279 280 280 280 280 281 281 282 282 282 282 281 281 282 282 281 282 282 282 282 281 281 283 282 276 268 265 266 267 266 267 268 269 270 271 270 268 271 275 277 277 278 281 283 283 284 284 284 284 284 284 285 285 285
279 278 278 278 278 277 277 277 278 278 278 278 278 277 277 277 277 277 277 278 278 278 278 278 278 278 278 278 278 279 279 279 279 279 279 280 280 280 280 281 281 281 282 281 281 281 282 281 281 282 282 282 282 282 282 283 278 269 263 263 265 264 264 265 265 266 268 267 267 268 270 273 275 276 277 279 280 281 282 282 282 283 284 284 285 285 285
278 278 277 277 277 277 276 277 277 278 278 278 277 277 277 277 277 277 277 278 278 278 278 278 278 278 278 279 279 279 279 279 279 279 280 280 280 280 280 281 281 281 281 281 281 282 281 281 282 282 282 283 282 280 279 280 275 266 262 263 263 262 262 262 263 265 265 264 266 271 273 272 273 275 275 275 277 278 279 280 281 282 283 283 284 284 284
277 277 277 277 276 276 276 277 278 278 277 277 277 277 277 277 277 277 278 278 278 278 278 278 277 277 279 279 279 279 280 280 280 280 280 280 280 280 281 281 281 281 281 281 282 282 281 282 283 280 276 277 276 270 267 268 267 263 261 261 261 260 261 261 263 264 264 263 266 271 272 270 270 270 269 271 273 274 276 278 279 280 281 282 282 282 281
277 276 276 276 276 276 276 277 277 277 277 277 277 277 277 278 278 278 278 278 278 278 278 278 277 277 278 278 278 278 279 278 279 280 280 281 281 281 281 281 281 281 281 281 282 283 282 282 282 277 270 269 269 265 261 260 261 260 260 260 260 259 259 261 262 263 263 263 264 266 267 267 267 267 268 270 272 272 274 274 275 277 279 279 279 279 278
276 276 275 275 275 276 276 276 276 276 277 277 277 277 276 277 278 279 279 278 278 278 278 276 275 274 274 275 276 278 277 276 277 279 280 281 281 281 281 282 281 281 282 282 281 281 279 276 274 270 266 264 264 263 260 259 259 259 259 259 258 258 259 261 262 262 262 262 263 263 264 266 267 269 270 271 271 272 273 274 275 276 277 277 276 275 275
276 275 275 275 275 276 276 276 276 276 276 277 277 277 277 276 276 277 278 278 278 277 275 273 271 270 270 271 274 276 276 275 277 278 279 280 281 282 282 282 282 282 282 280 275 271 269 268 267 265 263 260 259 258 258 258 258 258 258 257 257 257 258 259 260 261 261 262 262 263 265 267 269 270 269 269 270 271 272 273 274 275 275 274 274 273 274
275 274 274 275 275 276 275 275 275 275 275 275 276 277 278 277 276 275 276 276 275 274 273 271 269 268 268 268 270 273 274 275 276 278 278 280 281 282 282 283 282 280 278 274 269 265 264 264 264 262 260 258 257 256 257 257 258 257 257 257 256 256 256 256 257 258 261 262 262 263 265 266 267 267 266 267 268 270 271 272 273 273 273 272 272 272 273
274 274 274 275 275 275 275 275 274 274 273 274 276 277 277 277 276 275 274 273 272 271 270 269 268 266 266 267 268 270 272 274 275 277 278 280 281 282 282 283 282 279 274 270 267 265 263 262 261 259 258 257 257 257 257 257 257 256 256 256 256 255 256 256 256 257 260 263 263 264 264 265 264 264 265 265 266 268 269 270 270 270 270 270 269 270 270
274 274 274 275 274 274 273 273 274 274 274 274 276 276 275 275 275 274 272 271 270 269 268 267 266 265 265 266 268 270 272 273 274 276 278 279 280 281 282 282 282 278 273 269 267 265 263 261 259 258 258 258 258 257 257 256 256 256 256 255 255 255 255 256 256 256 258 260 261 261 261 262 262 262 262 263 264 265 266 266 266 267 267 267 267 268 268
274 274 274 273 273 272 271 272 273 274 274 274 275 274 272 272 272 271 270 269 269 267 266 265 265 264 264 264 266 269 271 272 272 275 277 277 279 280 282 282 281 278 274 271 269 268 265 262 261 259 258 258 258 257 256 256 256 255 255 255 255 254 255 256 256 256 256 256 257 257 257 258 259 259 260 261 262 263 264 264 265 265 265 266 266 267 267
274 273 273 273 272 271 271 272 273 274 274 273 272 271 270 269 269 268 268 267 266 265 265 264 263 263 264 263 263 266 269 270 271 272 274 275 278 281 281 281 280 277 273 271 270 268 265 263 261 259 258 258 257 257 256 256 255 255 255 254 254 254 255 255 256 256 256 257 257 257 258 258 258 259 259 260 261 262 262 262 263 263 264 264 265 266 266
272 272 272 273 272 271 271 273 274 273 272 270 269 268 267 267 266 265 265 266 265 263 263 262 261 261 262 262 261 263 266 268 269 271 272 275 278 280 280 280 278 275 271 269 268 266 264 262 260 259 258 258 257 256 256 255 255 255 255 254 254 254 255 255 256 256 257 257 258 258 259 259 259 259 260 260 260 260 260 261 261 262 262 263 264 264 264
271 272 272 272 272 272 271 271 271 269 267 266 267 265 264 264 264 263 263 264 263 262 261 261 260 260 261 261 261 262 265 267 269 271 274 276 278 278 278 278 276 273 269 267 266 264 262 261 259 258 258 258 257 256 255 255 254 254 255 254 254 254 254 255 255 256 256 257 258 258 259 259 259 259 259 259 259 259 259 260 261 262 262 263 263 263 263
272 272 272 272 272 272 270 268 267 265 263 263 264 264 262 262 262 261 260 261 261 260 260 260 258 259 261 261 261 262 264 267 269 272 274 276 276 275 275 274 272 270 268 265 263 261 260 259 258 258 258 257 256 255 255 255 254 255 255 255 254 254 255 255 255 256 256 257 258 258 258 259 259 259 259 259 259 259 260 260 261 262 263 263 263 263 263
273 272 271 270 268 268 268 267 264 263 262 261 261 261 260 261 261 259 258 259 260 259 259 258 257 257 258 258 258 260 263 267 270 272 273 273 273 272 272 271 270 268 266 264 261 260 258 257 257 258 257 256 256 255 254 254 254 255 256 256 255 255 256 256 256 257 258 258 258 258 258 259 259 259 259 260 260 261 261 261 262 262 263 263 263 263 264
273 270 269 267 265 265 266 265 262 261 260 260 259 258 257 258 258 257 257 258 258 257 257 257 256 256 256 257 258 260 263 266 269 270 270 270 271 270 269 268 267 266 264 263 261 260 259 258 257 257 257 255 255 254 254 254 254 255 255 256 256 256 256 257 257 258 258 258 258 259 259 259 259 260 260 260 261 261 262 262 263 263 263 263 264 264 264
270 266 265 265 263 262 263 262 260 259 259 259 258 257 257 257 256 256 257 257 257 256 256 256 255 255 256 257 259 262 263 265 268 268 267 269 271 269 266 266 265 264 264 263 261 260 259 257 256 256 256 255 254 254 254 254 255 255 255 256 256 256 257 257 257 258 258 258 258 259 259 259 260 260 261 261 261 262 262 262 263 263 263 264 265 265 265
267 264 264 264 262 261 260 260 259 259 259 258 258 257 257 256 256 256 257 257 256 256 256 255 255 255 256 256 259 263 264 265 266 266 265 267 269 267 264 263 261 260 261 262 260 258 257 256 256 256 255 254 254 254 254 255 255 256 256 256 257 257 257 257 258 258 258 259 259 259 260 260 261 261 261 261 262 262 262 262 262 263 263 264 264 264 264
265 263 263 262 260 259 259 258 258 258 258 258 257 257 256 256 255 256 256 256 255 255 255 254 254 256 258 259 261 263 264 265 265 264 262 262 265 266 265 263 260 258 258 259 258 256 256 255 255 255 255 254 254 254 254 255 255 256 256 256 257 257 257 258 258 258 259 259 260 260 260 261 261 261 262 262 262 262 262 263 262 263 263 263 264 264 264
263 261 261 260 259 259 258 258 257 257 258 257 257 256 256 256 255 255 256 256 255 255 255 254 254 257 260 262 263 264 263 262 262 262 259 259 260 261 263 263 262 259 257 256 255 255 255 255 254 254 255 255 254 254 254 255 255 256 256 256 257 257 258 258 258 259 259 260 261 261 261 261 261 261 261 262 262 262 263 262 262 263 263 264 264 265 265
261 260 259 258 259 258 258 257 257 257 257 257 257 256 256 256 256 256 256 256 256 256 257 257 256 257 260 262 265 266 263 260 258 259 258 257 256 257 260 261 260 257 256 255 254 254 254 254 254 254 255 255 254 254 255 255 256 256 257 257 257 258 258 259 259 259 260 260 260 261 261 261 261 262 262 262 262 262 262 262 262 263 263 264 264 264 264
260 260 259 259 259 258 258 257 257 256 256 256 256 256 256 256 256 256 256 256 257 258 258 257 257 258 261 262 263 264 262 259 257 257 257 256 255 256 258 258 256 255 255 254 254 254 254 254 254 254 254 255 255 255 255 256 256 256 257 258 258 258 259 259 260 260 260 260 260 260 260 261 261 261 261 261 261 261 261 262 262 263 263 263 263 263 263
260 260 259 259 259 258 258 258 257 257 257 257 256 256 256 256 256 257 257 258 258 258 257 256 257 259 261 260 258 258 260 260 259 257 256 256 255 255 256 255 255 254 254 253 253 254 255 255 254 254 255 254 255 255 255 256 257 257 257 258 258 259 259 260 260 260 260 260 260 260 260 260 260 260 260 261 261 262 262 263 263 263 263 262 262 262 262
Wind_Speed
27 26 25 26 26 25 25 25 25 24 25 26 25 25 22 17 18 23 23 21 20 14 7 7 7 7 11 15 17 17 13 11 9 10 13 12 9 9 10 11 11 9 9 9 9 8 7 10 11 8 9 12 14 18 18 13 9 6 2 2 3 4 2 3 5 3 3 7 6 3 2 2 2 5 6 5 5 6 6 6 4 3 7 7 5 6 3
26 26 25 25 25 26 25 24 24 23 23 24 25 24 21 23 27 28 25 24 22 14 6 6 8 10 13 14 16 20 18 15 15 12 10 10 7 6 9 11 11 10 10 11 12 11 9 11 14 14 10 11 19 27 26 18 11 8 8 7 7 5 2 3 4 5 5 5 4 5 4 1 3 4 5 7 9 9 6 5 3 5 10 10 8 9 5
26 26 26 25 25 26 27 26 27 26 24 23 25 24 22 22 22 21 22 25 27 22 14 11 9 11 14 14 15 16 14 16 22 19 16 17 13 8 10 14 14 13 13 13 14 16 15 11 11 13 11 9 14 25 31 26 16 17 21 17 12 7 4 5 5 7 7 5 3 3 2 1 2 3 5 7 9 10 7 4 3 5 9 10 8 8 8
26 25 25 26 27 27 27 28 29 28 26 24 26 25 20 13 10 8 9 19 30 30 27 21 12 10 12 12 12 14 12 14 22 23 20 22 22 16 15 16 15 14 15 14 14 16 17 13 8 8 10 8 9 20 31 29 24 27 30 22 10 2 3 7 9 11 10 8 7 5 4 4 3 4 7 6 7 10 7 3 4 4 6 7 6 7 11
26 26 25 26 27 27 27 28 27 26 25 24 25 25 18 10 6 5 3 8 19 23 23 18 11 10 12 8 6 13 14 11 14 19 18 18 20 16 14 16 14 11 13 14 14 15 17 18 15 13 15 10 6 13 19 20 27 31 27 19 9 2 5 11 13 16 15 12 11 7 6 7 7 6 8 6 5 8 7 6 8 3 2 7 8 9 14
27 27 27 27 28 29 29 29 29 28 27 26 25 23 18 10 8 12 10 5 7 11 13 12 12 15 15 10 8 14 16 12 10 12 11 11 11 6 7 14 15 13 15 13 10 12 13 13 14 14 15 11 6 8 9 11 21 23 16 15 10 3 9 13 13 17 18 16 13 9 8 8 7 6 8 8 7 8 9 10 10 6 4 10 12 12 15
28 29 29 29 29 29 29 30 29 29 28 27 25 22 19 15 14 18 18 13 12 17 20 19 17 17 16 12 12 15 17 17 14 11 9 11 11 8 9 15 15 14 16 14 10 11 11 10 11 11 14 14 10 9 9 10 15 14 10 11 11 5 9 14 14 15 16 16 14 10 9 8 6 8 11 11 10 11 12 12 11 9 10 15 16 16 16
30 30 30 30 30 29 30 29 29 29 27 27 27 26 22 19 17 17 16 16 21 25 24 19 15 13 14 14 13 14 17 19 16 12 12 12 10 9 13 17 14 10 13 14 12 11 11 12 12 9 9 10 8 7 7 6 7 9 7 7 9 9 10 13 12 10 11 13 13 12 12 12 12 15 14 12 11 12 12 13 13 11 12 17 17 13 13
31 30 30 31 30 30 30 29 29 28 27 27 28 29 28 26 28 27 17 11 16 21 17 12 11 9 11 12 12 13 17 17 14 12 14 15 13 10 11 13 10 8 11 13 12 12 12 13 15 15 11 10 8 6 4 4 3 4 6 5 5 8 8 8 6 5 8 12 14 15 15 12 14 16 14 13 14 14 14 14 12 12 13 16 13 8 10
31 31 31 31 31 31 31 30 29 28 27 28 29 31 31 28 29 32 22 10 12 16 12 10 12 10 9 12 13 15 17 15 12 12 11 14 16 14 10 9 8 8 12 15 16 19 18 17 20 22 20 17 17 15 13 11 7 4 5 4 4 6 7 6 5 5 7 11 13 13 10 6 8 12 16 19 19 18 16 12 11 14 14 11 9 9 11
32 32 33 33 33 33 31 31 31 30 29 30 31 34 34 30 29 31 23 11 11 15 10 9 12 11 13 17 17 18 19 17 14 12 7 7 13 19 18 15 12 11 15 18 22 25 25 23 23 24 24 22 22 22 20 17 13 10 7 4 4 8 8 7 6 5 6 7 7 6 5 5 8 12 16 19 19 18 16 14 15 15 12 10 9 9 10
33 33 34 34 34 34 33 33 33 32 31 31 33 35 36 34 34 32 22 9 9 13 10 11 15 15 17 21 20 19 20 19 20 21 17 14 17 24 24 16 11 15 22 23 24 26 25 22 20 20 20 20 20 21 19 17 16 15 12 8 6 9 10 7 4 3 2 3 6 5 6 9 11 8 6 9 12 14 14 15 18 15 13 14 13 11 12
34 34 34 35 35 35 35 36 36 35 33 33 34 37 38 35 33 33 25 11 7 10 11 13 20 21 21 21 21 22 25 28 31 30 25 20 18 20 22 18 17 25 30 26 23 20 15 12 12 12 13 13 14 17 19 19 18 15 14 13 10 9 9 6 3 2 1 2 5 7 5 4 4 2 3 4 5 7 8 11 15 15 13 13 13 14 16
35 36 36 37 38 38 38 38 38 37 35 35 35 36 37 34 33 35 30 14 5 11 15 12 14 18 20 20 20 20 22 24 25 24 22 21 19 20 26 29 30 34 32 23 16 12 6 6 7 8 8 8 8 11 13 15 18 19 18 16 14 12 10 6 5 5 4 5 8 6 4 4 3 3 4 6 7 8 9 8 11 11 12 12 13 15 16
37 38 39 39 39 39 39 39 39 39 38 37 38 38 38 37 36 37 35 22 10 11 16 14 13 14 15 17 19 16 13 13 13 14 17 20 20 20 25 29 29 30 28 17 7 5 4 4 5 5 5 6 7 8 6 5 10 17 21 18 15 15 13 9 7 6 7 8 8 5 6 9 7 6 7 10 11 8 8 5 7 6 11 16 16 15 15
39 40 40 41 41 41 41 40 40 40 39 38 39 40 40 40 39 37 38 33 17 10 16 23 24 21 16 16 18 16 11 9 7 7 9 10 13 17 22 26 25 26 24 13 4 3 3 3 5 6 6 6 6 7 5 3 4 7 15 19 20 18 15 12 9 7 8 8 7 7 8 7 7 10 8 7 11 10 8 4 5 9 12 18 17 14 14
41 41 41 42 43 43 42 42 41 41 41 40 41 42 41 41 41 37 38 37 24 18 29 37 33 25 15 11 14 15 12 11 8 6 6 6 7 10 15 18 20 22 21 9 1 2 5 4 4 5 5 5 5 7 6 4 4 4 6 12 17 15 12 10 8 8 9 9 8 7 5 3 8 12 8 10 19 16 8 2 7 13 13 17 17 14 14
43 43 43 43 43 43 43 44 44 44 44 43 43 44 44 44 43 39 40 39 24 18 32 39 32 26 20 16 18 16 13 11 6 3 5 5 5 9 12 9 9 14 15 8 3 4 5 5 6 6 6 5 5 6 7 5 4 5 4 6 9 9 7 7 7 9 10 9 8 6 3 4 8 9 11 17 19 11 4 8 12 8 6 17 21 18 18
43 44 45 45 45 47 47 47 47 47 47 46 46 47 47 47 45 41 40 39 27 20 29 36 32 31 31 28 26 22 18 16 12 7 7 5 5 11 16 12 8 8 8 5 4 5 5 5 5 4 5 5 4 5 7 6 6 5 4 5 6 6 5 6 7 8 8 8 7 6 5 5 9 11 17 21 13 3 7 11 10 5 10 17 23 22 22
44 45 46 47 48 50 50 50 51 51 52 51 48 48 49 48 46 43 40 41 37 31 35 40 38 39 39 34 30 26 20 19 16 9 7 7 6 8 8 7 7 7 4 5 5 4 5 7 6 3 4 5 4 3 5 7 8 7 5 6 7 6 4 4 6 6 6 5 5 6 5 8 18 15 10 11 8 11 11 7 4 9 15 18 22 23 20
46 48 50 51 53 54 53 53 53 52 51 50 48 48 49 47 45 43 41 42 39 30 28 34 38 40 43 42 41 38 32 29 25 17 14 15 12 9 4 3 6 5 2 4 5 4 3 5 4 3 3 3 3 3 5 6 8 8 8 8 7 6 5 4 5 5 4 4 7 7 5 9 26 21 8 15 24 19 11 9 6 10 17 21 22 20 17
50 52 54 55 55 54 52 52 51 50 49 48 46 46 47 46 44 43 40 41 40 35 32 38 40 42 45 44 43 43 42 41 39 33 26 21 17 17 15 8 7 9 7 5 3 2 3 4 3 2 3 3 3 4 5 5 6 6 5 4 4 5 6 6 5 6 8 7 7 6 1 10 29 29 20 27 32 16 5 10 12 13 17 19 18 15 13
54 55 55 54 53 52 51 51 50 49 49 48 46 44 45 44 42 42 39 38 41 43 43 44 42 40 44 45 43 44 45 43 41 41 38 27 15 18 22 17 14 16 16 11 6 2 2 4 3 3 4 3 3 4 5 6 6 6 5 4 3 5 6 3 2 3 7 6 4 3 4 11 28 35 29 24 24 18 13 13 14 15 17 17 15 14 13
55 55 54 53 53 53 53 52 52 50 49 47 45 43 43 41 38 37 35 33 34 33 31 32 35 35 35 38 40 41 41 40 38 40 44 37 19 10 15 21 22 18 17 21 22 15 7 4 2 3 5 3 2 3 6 6 4 3 4 5 4 3 5 4 3 3 4 6 5 5 6 11 23 31 27 21 20 22 23 21 19 18 17 15 14 14 11
54 54 55 56 56 55 53 53 52 52 50 47 44 42 41 39 36 33 29 27 26 21 12 13 25 32 31 30 33 35 34 34 35 35 39 42 35 24 21 28 30 25 22 27 28 19 8 3 3 4 5 5 5 4 6 5 3 3 3 4 4 4 5 3 3 3 2 3 4 2 6 13 19 24 23 22 21 21 21 23 23 19 17 16 14 11 10
55 56 57 57 57 55 54 52 51 51 50 46 43 40 39 38 34 31 29 28 28 23 13 9 19 29 28 25 27 28 27 27 30 32 33 35 39 39 36 35 34 31 27 25 25 19 10 4 4 5 5 6 8 5 4 5 5 4 3 2 6 7 5 4 3 3 3 4 6 7 3 5 12 16 17 18 20 19 17 18 19 19 17 15 10 8 9
57 57 58 57 56 55 54 53 52 51 49 45 42 39 37 34 32 30 31 28 22 16 7 4 11 18 19 21 25 27 27 28 28 29 31 32 35 38 38 36 35 32 26 21 19 17 10 4 6 7 5 7 7 5 4 5 3 2 1 6 9 5 3 4 3 2 2 1 6 8 5 3 3 7 9 9 11 14 14 15 17 18 14 10 9 9 10
56 57 56 56 55 54 53 53 52 50 46 42 39 35 32 31 28 26 25 24 22 19 13 10 14 17 18 25 32 31 32 34 32 30 33 34 35 35 35 35 34 31 25 18 12 9 6 6 7 6 5 7 7 4 2 3 1 1 2 7 9 5 4 6 4 3 4 5 12 14 8 5 9 6 3 7 8 10 11 11 12 12 10 8 9 10 8
55 56 55 54 55 55 54 51 48 45 40 35 31 29 28 27 21 13 10 12 19 26 23 18 18 17 17 23 27 25 24 26 26 27 31 33 33 34 35 34 33 31 26 19 12 7 6 8 9 8 8 10 7 2 3 4 3 1 2 9 10 8 9 9 7 8 9 12 20 22 15 10 12 13 9 6 5 5 6 5 4 5 6 7 8 8 7
55 56 55 55 55 54 50 44 39 36 31 26 23 20 18 16 12 9 9 11 12 18 19 11 7 10 15 21 25 25 25 23 22 23 27 31 33 34 34 34 34 32 26 20 15 10 6 6 9 13 17 17 9 2 3 5 3 3 6 12 14 14 14 13 11 10 12 19 24 22 16 13 10 6 14 16 12 10 9 8 8 8 8 9 10 11 11
55 56 55 53 50 46 40 34 31 27 22 19 17 11 6 7 11 14 16 16 13 11 12 8 5 8 13 15 17 19 19 17 16 19 23 26 31 33 32 31 30 27 23 19 15 13 10 7 6 9 16 18 10 2 1 2 4 4 9 16 16 16 17 15 13 12 16 23 23 13 7 11 9 5 12 18 18 16 15 14 13 12 12 12 12 14 13
55 54 51 47 42 37 32 28 24 20 17 15 13 9 9 15 20 19 17 16 15 11 6 4 3 4 4 6 9 11 13 14 11 11 14 18 23 26 27 28 30 29 25 18 12 10 12 12 8 3 2 2 1 2 4 4 3 3 14 18 17 19 20 15 13 15 19 25 21 8 5 16 20 15 14 16 17 17 17 17 15 13 14 14 14 14 12
52 50 46 40 35 31 26 21 18 15 13 10 11 15 17 18 20 19 15 13 14 12 5 2 2 1 3 7 10 10 13 15 10 5 6 10 14 15 19 25 26 24 21 16 9 6 8 11 8 2 9 12 7 4 4 5 4 9 17 17 17 23 22 13 11 17 21 24 21 12 7 12 17 17 15 15 16 16 16 16 14 12 12 13 13 13 11
48 45 41 36 31 25 18 14 13 12 9 8 13 20 23 21 15 11 11 10 8 5 4 5 2 1 6 9 6 8 17 17 8 4 6 8 11 10 12 16 15 14 17 15 7 2 2 2 2 4 7 9 8 4 4 5 10 14 17 17 19 25 22 12 12 20 23 20 18 14 8 6 8 12 14 16 17 15 14 13 11 10 11 12 12 11 9
44 40 35 30 26 17 10 10 13 13 10 11 14 15 14 17 22 16 4 1 2 3 5 8 5 1 6 7 3 9 22 20 9 7 8 7 11 11 10 10 6 6 10 9 3 5 5 5 5 4 4 6 6 5 3 8 14 17 17 18 22 25 22 16 18 24 22 15 15 17 14 10 11 14 16 17 17 15 14 13 13 12 13 14 13 11 8
39 33 27 23 18 11 9 14 18 18 16 16 17 14 6 5 15 21 20 20 19 13 5 4 5 4 5 3 3 12 21 17 11 11 9 6 7 8 8 6 1 4 7 6 4 4 7 8 6 4 4 5 4 4 7 11 14 16 17 18 20 21 19 16 20 25 19 8 9 17 19 17 18 18 17 17 17 14 12 13 13 13 13 14 12 10 8
32 26 21 18 16 15 16 20 22 20 17 13 10 7 4 2 5 14 23 26 26 22 14 6 3 6 7 3 5 12 15 10 10 10 6 4 4 4 5 2 3 5 7 6 3 3 8 11 8 6 5 4 4 6 12 13 12 14 17 17 17 18 18 16 19 23 17 5 5 15 20 19 20 20 18 17 17 15 13 14 14 13 12 12 10 9 8
27 22 18 20 22 19 19 25 24 16 12 8 2 2 8 10 7 10 17 19 16 19 20 11 4 10 10 4 7 13 11 7 9 7 2 3 6 3 2 1 4 6 4 4 3 5 7 8 6 5 5 5 5 11 15 14 12 13 15 16 16 18 18 16 17 20 18 10 9 17 20 19 20 21 19 18 17 16 15 14 13 11 10 9 8 8 7
25 22 21 23 22 17 18 24 21 10 7 10 8 6 12 16 10 6 10 11 8 11 15 10 7 13 12 5 9 14 10 5 6 4 3 6 8 2 0 2 4 5 4 2 2 3 4 4 3 3 4 4 7 15 18 16 15 15 15 15 16 16 16 15 13 14 12 8 8 12 15 15 17 18 17 16 15 14 12 11 10 9 8 7 6 6 6
27 23 20 19 19 19 20 19 13 7 8 12 13 10 9 11 8 4 6 7 4 6 9 9 11 15 13 7 6 10 10 7 6 4 5 8 8 4 1 2 3 4 4 3 4 4 4 4 3 3 3 4 10 18 20 18 17 18 17 16 16 15 14 12 10 7 5 4 5 7 9 10 12 14 15 15 14 12 11 10 9 9 8 6 6 6 6
26 21 17 14 16 19 21 19 17 15 13 12 10 7 5 6 6 6 6 4 2 5 10 13 11 11 12 11 9 10 12 13 10 7 5 5 8 7 3 1 3 4 3 3 4 4 3 4 3 3 3 7 14 20 21 19 20 21 19 17 17 16 14 11 8 6 5 5 5 7 8 9 10 11 12 13 13 12 11 10 9 9 9 8 8 8 8
19 15 11 10 13 17 22 26 26 19 13 9 7 4 2 4 5 5 5 3 2 6 11 13 11 11 18 20 15 12 12 13 11 7 5 4 8 7 3 1 3 4 4 2 3 3 3 4 3 2 5 12 18 21 21 20 21 22 19 18 18 16 14 12 9 6 6 7 7 7 8 8 9 9 10 11 11 10 10 10 10 9 10 10 9 9 9
12 8 4 5 14 19 19 21 21 14 6 5 6 4 3 4 4 3 3 5 6 6 9 14 18 19 20 19 14 12 12 10 7 5 3 4 6 5 2 3 4 3 3 3 4 4 4 4 2 2 8 14 19 22 22 22 22 22 19 18 18 17 14 13 11 8 7 7 7 7 8 8 8 9 9 9 9 8 8 10 11 10 10 10 9 8 8
12 13 8 8 15 18 12 9 12 11 6 3 4 4 3 5 5 2 3 6 7 7 12 19 20 17 15 15 14 11 9 8 6 4 3 4 4 3 3 3 3 2 3 3 4 3 3 3 2 4 11 17 21 24 24 23 23 23 20 19 19 18 16 15 13 10 8 7 6 7 7 7 7 7 8 9 10 10 10 10 10 10 10 9 9 9 8
18 20 15 9 11 14 9 4 7 8 4 2 3 2 2 5 4 3 7 12 13 17 23 26 21 15 15 17 13 7 5 6 7 4 3 3 3 3 3 2 2 2 3 3 3 3 2 2 3 7 13 19 23 25 24 22 22 22 20 20 20 19 18 17 16 14 11 10 9 8 8 7 7 8 9 10 12 12 11 11 11 10 10 9 9 9 9
20 17 10 6 6 10 7 4 3 4 2 1 3 4 5 6 8 12 19 23 24 25 27 28 23 16 14 12 8 5 6 7 5 3 4 3 2 3 3 2 3 4 4 4 3 3 2 2 4 10 15 20 23 24 23 21 20 20 20 21 21 20 19 18 17 16 13 11 10 9 9 9 9 10 11 12 12 12 12 12 12 12 11 11 11 12 12
19 13 9 6 4 6 5 3 2 4 3 5 10 13 15 16 19 22 25 26 26 26 28 27 22 16 11 9 6 5 5 4 3 4 5 3 2 2 3 4 4 3 3 3 3 2 1 2 8 15 19 21 23 24 23 22 21 20 20 20 19 19 19 18 17 16 15 13 11 10 10 10 11 11 11 11 12 12 12 11 11 12 12 12 13 13 13
16 10 7 5 3 3 3 3 6 8 9 11 15 18 19 19 20 23 25 24 24 25 24 20 13 8 6 5 4 2 3 3 3 4 3 2 2 3 4 4 4 3 2 2 1 1 2 6 13 18 19 20 21 23 23 22 21 21 20 20 19 19 19 18 17 16 16 15 14 13 12 12 11 11 10 10 11 11 11 12 12 12 12 12 12 12 12
22 14 10 6 3 1 5 7 7 8 11 15 18 19 19 18 19 23 26 26 25 24 19 11 6 4 4 3 2 1 3 3 3 3 4 5 4 3 2 3 3 3 2 1 1 3 7 13 17 18 18 19 20 21 22 21 20 19 19 19 19 18 18 17 17 16 16 15 15 14 13 12 11 10 10 9 10 11 12 12 12 11 11 11 11 12 12
24 17 12 9 4 4 9 9 4 5 10 16 19 21 21 21 23 26 28 28 28 23 12 3 3 3 3 2 2 3 3 3 2 3 4 4 3 2 3 3 2 1 1 2 5 10 15 18 18 17 17 18 19 20 21 21 20 18 18 18 18 17 17 17 16 16 15 15 14 13 13 13 12 11 11 12 13 13 13 12 12 11 11 11 11 11 11
15 12 11 12 11 9 10 7 3 4 9 13 19 23 24 23 25 28 29 27 24 15 6 1 2 2 2 4 4 2 2 3 4 4 4 3 2 2 3 2 1 2 5 10 15 16 17 16 16 16 17 18 19 20 21 20 19 17 17 17 17 16 16 16 15 15 14 14 13 13 13 14 14 14 14 15 14 12 11 11 11 12 12 13 13 13 13
9 7 8 13 17 16 13 8 6 10 14 18 22 25 25 25 28 30 26 21 16 9 3 2 3 4 3 2 2 1 2 3 4 3 2 2 2 2 1 2 5 7 11 17 19 16 14 13 13 13 14 16 18 19 20 19 18 16 16 16 16 16 15 15 15 14 13 13 12 12 12 13 14 13 13 12 11 10 10 11 12 12 13 14 15 15 15
Wind_Direction
310 311 310 308 308 306 302 303 305 306 307 306 308 310 299 275 269 280 284 278 265 252 228 222 221 228 244 247 247 249 252 253 252 232 216 219 229 227 232 241 236 232 240 236 226 224 222 223 222 226 232 220 217 226 216 188 164 163 203 267 149 117 104 232 263 297 298 285 292 315 302 175 201 243 217 197 217 218 221 248 280 287 270 277 272 248 247
309 312 312 308 307 305 302 302 304 305 306 307 308 307 295 282 282 281 278 272 254 236 234 241 234 244 248 247 249 248 245 246 250 243 223 218 217 221 234 236 231 230 230 228 227 226 226 224 218 222 234 222 221 227 219 200 184 189 202 192 171 167 151 192 254 304 317 309 314 330 341 146 199 240 211 201 216 222 232 253 263 254 244 243 257 256 247
308 308 308 308 306 304 303 304 303 302 304 306 305 302 299 295 287 274 263 250 233 227 237 241 247 258 253 252 254 249 244 239 238 240 239 230 220 225 238 229 225 229 229 229 227 223 229 234 215 215 230 225 218 224 221 211 204 212 210 195 180 189 180 159 202 248 261 253 216 237 278 175 215 254 210 195 201 202 211 231 216 237 240 230 239 261 267
310 308 306 306 305 303 304 304 301 299 301 302 301 298 297 294 284 273 251 226 222 231 242 241 243 254 254 259 254 246 251 242 232 233 238 234 226 230 240 233 227 228 229 235 238 230 233 238 225 213 227 226 211 220 222 215 212 221 218 201 177 152 197 201 212 229 240 233 210 190 152 159 199 223 205 193 189 191 192 214 222 234 257 250 250 276 282
311 308 306 304 303 302 302 301 298 297 299 302 301 293 285 278 269 277 290 222 226 236 241 238 242 248 248 258 256 247 253 255 236 223 225 233 230 229 239 236 229 226 226 234 240 235 233 232 231 231 231 228 222 226 226 216 217 225 221 202 178 114 226 220 222 231 236 234 222 186 151 192 204 183 188 194 188 189 189 212 227 231 294 269 257 265 275
306 305 305 303 302 300 299 299 298 296 296 298 297 285 270 260 262 265 271 265 242 248 250 250 258 260 257 260 270 265 260 262 257 232 226 237 232 227 249 241 236 236 238 245 247 240 242 237 231 239 241 237 241 238 232 222 223 227 221 204 195 205 233 224 223 231 234 235 227 192 165 202 201 174 200 209 195 195 203 220 229 216 230 255 258 260 266
307 306 306 304 303 301 299 299 299 298 297 294 288 277 263 257 267 271 269 266 264 269 274 276 273 269 268 265 260 265 265 262 265 262 259 260 243 228 246 251 249 247 244 248 249 242 252 252 234 235 239 234 233 234 233 231 226 218 208 209 203 202 231 228 225 232 234 234 232 211 197 216 224 222 228 227 221 217 218 230 236 223 229 249 257 261 265
308 307 308 306 304 302 299 299 299 298 301 296 285 276 267 261 266 272 267 263 267 271 272 274 274 268 266 266 262 264 268 267 268 263 259 270 263 237 251 264 266 264 259 259 258 257 271 277 269 265 257 246 247 246 240 246 235 214 207 212 202 204 226 228 226 236 239 234 234 231 222 223 233 238 235 232 236 236 230 235 236 229 237 247 250 261 270
309 308 309 307 302 300 298 300 300 297 298 296 287 280 274 271 274 274 267 258 264 267 265 261 266 263 254 260 267 265 266 271 280 277 262 264 270 262 267 279 288 304 296 285 285 291 294 293 291 291 285 274 272 272 272 312 319 222 215 220 203 206 225 230 226 239 235 225 227 231 227 226 239 247 243 232 230 232 229 228 223 217 229 242 247 252 258
308 307 307 304 301 301 300 300 300 297 296 294 290 287 283 282 281 273 263 253 253 258 261 253 254 257 248 255 264 264 266 272 282 284 261 242 254 270 278 287 296 299 290 286 294 298 292 288 288 285 280 274 269 268 268 266 261 223 214 229 210 203 217 223 216 232 238 225 219 221 218 220 241 242 235 229 228 231 232 232 225 215 217 231 237 231 242
308 306 303 301 301 302 301 299 298 297 296 293 290 289 286 285 286 274 261 255 252 251 253 248 248 257 258 259 262 262 264 266 263 265 260 236 261 279 282 286 288 280 280 286 289 288 287 288 288 281 274 270 265 261 259 254 243 224 214 222 209 203 213 217 209 225 241 213 181 175 184 208 229 230 226 226 229 233 233 235 233 221 211 223 234 238 251
307 304 302 303 303 302 301 300 299 297 296 293 290 288 286 286 285 275 260 253 258 253 252 249 249 258 261 259 262 262 262 264 259 257 262 265 267 271 273 277 276 273 280 283 280 283 290 291 287 275 263 257 255 253 251 246 240 226 210 206 209 207 212 219 210 222 237 143 135 167 211 222 228 227 210 209 219 225 227 236 239 230 217 223 233 242 248
305 305 305 305 304 303 301 300 300 298 297 295 291 287 286 286 282 273 263 260 260 254 258 258 254 258 262 260 262 264 262 263 263 260 261 266 266 261 260 257 256 267 275 278 277 285 293 288 281 273 262 255 249 246 242 237 236 228 210 206 209 207 209 215 202 187 139 126 175 207 237 244 221 187 105 125 179 196 206 236 245 231 216 220 227 235 242
307 307 306 305 305 305 303 302 301 300 297 295 292 289 286 283 279 274 267 262 254 255 261 265 259 258 261 258 258 263 263 262 263 261 258 260 260 253 251 252 257 264 270 273 275 273 261 262 274 273 266 264 259 253 244 232 227 223 216 212 209 208 211 213 208 199 188 205 214 220 280 291 204 159 159 180 193 185 180 223 248 222 201 210 218 227 239
309 308 306 307 307 306 305 303 301 300 298 295 293 291 288 286 283 278 271 266 267 261 256 260 266 264 260 257 258 262 264 261 261 260 256 255 254 252 252 253 257 263 265 263 256 235 228 248 262 267 267 266 270 274 266 244 227 219 216 214 211 213 214 211 212 205 196 217 232 223 246 248 214 187 201 205 206 189 159 191 258 230 197 204 211 222 234
309 309 308 308 307 306 306 304 302 301 299 298 296 292 290 289 286 281 272 265 262 261 261 266 271 271 267 261 258 256 258 260 259 259 258 250 246 251 255 255 257 258 256 249 211 198 221 222 235 255 262 256 270 282 274 284 284 233 216 214 215 217 218 214 220 218 199 214 230 216 230 240 187 183 211 193 169 152 121 126 257 253 219 203 202 218 227
310 310 310 309 308 307 305 303 303 302 300 299 298 295 293 290 287 283 274 264 258 263 269 271 273 271 268 264 259 256 258 258 249 247 254 243 235 248 256 259 258 249 239 231 168 203 225 232 241 252 253 242 259 275 262 252 283 278 228 214 214 216 217 212 216 220 210 216 227 225 245 244 170 176 187 150 142 134 103 112 244 256 235 196 188 209 220
312 311 310 309 307 307 306 304 304 303 300 300 300 297 295 292 289 286 277 266 258 259 265 266 265 261 259 262 264 261 257 253 244 232 250 246 230 235 236 234 239 235 225 214 205 219 229 240 236 240 253 234 219 254 261 243 245 253 230 213 214 213 211 206 211 219 217 218 228 234 240 202 174 159 147 141 134 123 145 220 234 251 206 177 184 202 214
313 311 310 310 309 308 308 306 305 303 301 301 300 297 294 292 290 286 276 266 260 262 266 265 262 259 259 261 261 258 253 253 251 246 256 258 207 218 229 221 209 219 212 192 208 226 230 240 229 229 252 234 206 247 256 243 246 247 222 218 220 214 210 208 207 213 214 215 226 247 253 176 142 136 147 148 138 152 214 217 220 178 143 165 186 200 209
313 312 311 311 310 309 308 307 305 303 302 301 300 296 293 292 289 285 278 269 263 263 267 266 263 261 261 258 254 255 253 248 242 231 245 251 194 188 230 229 198 203 203 194 216 221 220 237 235 213 234 236 223 242 250 250 254 243 226 231 222 209 213 217 208 207 210 215 212 232 253 162 145 143 144 152 187 225 206 176 160 169 171 178 186 196 205
314 312 311 311 310 308 308 306 303 302 301 299 299 297 295 294 291 288 286 278 266 259 265 267 263 261 262 259 257 259 257 250 245 239 243 247 223 195 223 224 185 189 184 193 222 224 204 227 225 209 247 245 207 221 250 265 261 240 236 248 233 205 197 204 212 198 187 215 217 223 259 170 159 157 169 199 209 215 186 147 146 168 177 181 184 193 204
314 313 311 311 309 307 306 305 303 303 302 301 302 300 296 294 293 292 291 282 268 263 271 273 268 265 265 263 261 261 259 256 255 252 250 249 230 218 229 228 205 216 212 181 200 239 215 218 209 218 265 251 214 239 248 253 269 269 262 263 237 216 212 209 214 203 196 217 225 214 217 162 171 182 204 208 207 214 179 164 174 173 176 181 188 204 213
313 312 310 309 308 307 308 307 306 306 305 304 304 300 296 295 295 292 290 282 274 272 274 273 270 267 263 262 262 263 261 257 255 253 249 246 231 220 227 228 226 231 225 212 213 226 207 219 224 233 246 234 221 251 248 243 259 272 271 264 248 258 267 267 277 233 217 228 233 190 140 159 183 201 218 218 212 220 218 198 193 197 197 196 206 221 223
313 312 311 311 311 310 310 310 308 307 306 305 304 302 298 297 296 293 289 281 274 274 273 265 259 257 258 261 264 265 259 254 254 253 248 242 235 217 222 229 232 232 228 227 233 236 230 222 222 235 242 217 165 231 250 247 242 246 267 273 265 283 298 276 255 268 234 227 243 229 187 178 192 205 218 227 224 222 220 218 221 222 215 212 222 230 228
314 313 313 313 313 312 312 311 309 307 307 306 304 302 299 297 297 295 288 277 272 274 276 259 257 262 268 271 268 266 262 256 256 254 247 241 238 234 234 239 239 236 234 234 234 231 227 220 206 226 240 210 183 218 247 238 223 224 242 264 280 308 330 315 253 263 255 252 285 281 177 188 199 204 211 221 226 225 225 228 231 231 225 224 230 232 229
316 315 315 314 314 314 313 312 310 308 308 307 305 303 300 298 298 294 285 278 275 272 267 265 272 276 277 271 265 263 262 257 254 251 248 246 244 242 242 244 245 243 241 240 234 226 224 226 211 220 236 211 200 220 239 230 246 247 220 317 323 304 313 336 308 273 269 292 335 6 59 192 209 210 213 219 222 223 227 229 231 231 226 222 223 219 218
316 316 316 315 315 314 312 312 311 310 309 309 307 304 300 297 296 291 283 277 271 264 258 267 282 286 283 273 269 267 265 263 262 258 254 251 248 245 242 239 242 243 239 236 233 226 222 221 215 221 237 228 224 238 226 219 253 243 169 2 348 324 314 340 325 271 237 326 3 359 343 310 273 230 219 214 210 211 215 216 218 222 218 208 202 199 197
317 317 317 316 315 315 314 313 312 311 311 310 307 304 301 298 297 295 287 274 259 253 258 272 281 289 290 280 274 271 268 267 264 258 254 252 248 245 240 235 236 237 231 227 227 223 217 220 219 220 222 218 227 244 198 190 225 127 73 3 358 6 1 344 327 305 292 329 351 344 316 316 359 14 169 188 194 200 207 211 214 217 214 202 196 192 187
317 317 318 317 317 317 316 316 314 313 313 313 311 309 307 306 308 312 310 290 266 258 261 270 276 278 278 277 278 278 274 269 261 254 253 252 248 244 240 235 233 231 226 222 222 226 230 222 219 228 220 204 204 213 194 206 226 178 26 357 355 359 354 345 337 323 305 313 330 329 312 309 349 22 59 104 153 171 178 181 179 181 183 181 177 171 171
319 319 319 319 318 319 319 318 317 317 317 319 321 321 318 318 324 331 327 317 285 260 256 259 268 272 274 279 284 287 283 275 266 257 250 246 243 241 237 233 232 230 225 222 222 224 228 219 222 231 223 208 199 203 213 212 186 101 24 359 354 354 349 344 342 331 316 317 320 315 309 310 318 20 61 71 90 105 110 116 116 123 144 156 155 152 153
321 321 322 321 320 322 322 320 320 323 324 326 327 327 318 310 314 316 314 313 303 273 250 245 274 288 282 281 286 292 296 295 281 262 251 244 241 239 235 231 230 226 219 218 220 221 223 221 219 224 219 213 208 206 265 203 145 83 4 353 353 348 341 337 336 333 334 335 329 312 330 5 13 46 50 56 75 87 92 102 109 117 130 137 137 139 142
323 324 325 324 323 324 324 323 326 329 327 328 334 336 313 296 294 299 304 307 308 300 260 240 303 298 267 290 311 320 331 335 319 277 253 244 239 235 231 227 225 221 217 213 212 216 221 219 210 202 237 252 195 85 40 43 98 2 343 345 347 341 337 337 339 345 356 2 360 350 7 22 31 41 35 43 67 83 91 98 101 109 122 126 126 130 135
325 326 327 327 328 328 327 328 332 329 325 344 24 26 2 327 298 285 281 284 293 296 278 261 317 269 274 316 331 348 355 349 337 312 281 255 237 227 222 220 220 218 215 211 203 198 208 209 202 118 47 40 48 91 78 44 16 340 338 342 343 339 338 340 348 357 8 17 18 15 352 3 27 45 50 57 70 77 85 92 95 103 115 117 115 116 117
328 328 328 329 331 333 334 333 333 334 341 21 43 34 20 9 349 308 269 260 279 313 14 32 25 283 324 329 328 1 2 351 325 309 320 275 241 223 209 208 208 203 200 202 198 143 120 117 72 58 48 35 32 64 76 19 352 345 344 345 345 345 346 353 1 1 7 15 21 26 25 17 39 57 60 62 67 72 79 88 94 96 97 97 94 93 96
329 328 330 333 334 336 344 350 352 358 10 23 24 20 22 29 32 34 56 160 52 68 49 32 40 17 340 336 312 349 354 347 315 301 322 288 256 243 214 197 194 180 179 179 135 42 25 17 26 38 33 24 31 48 17 337 341 346 347 348 349 352 356 355 345 346 354 6 19 29 41 55 58 55 50 49 55 63 69 73 77 78 79 80 79 79 82
329 333 338 339 339 351 13 13 9 5 360 359 1 359 343 6 29 43 61 66 63 70 67 25 49 44 349 313 282 334 344 343 326 312 307 283 268 255 221 196 128 76 88 83 68 37 13 12 30 50 32 32 48 20 333 331 339 345 346 348 349 352 353 343 332 337 345 355 13 24 37 49 49 45 43 42 45 51 58 62 65 67 67 67 66 66 67
335 343 348 347 358 17 19 10 6 2 354 346 344 348 338 290 354 28 41 47 52 55 55 69 76 11 345 278 281 326 332 331 334 329 301 272 297 268 224 189 97 92 66 45 67 89 44 38 55 72 56 59 63 11 348 343 343 342 343 346 345 345 346 342 339 347 354 345 340 10 26 38 39 36 34 34 35 39 45 47 48 49 51 51 50 48 47
346 356 6 11 19 21 4 352 352 358 7 12 4 9 21 22 17 15 19 25 34 36 38 51 37 353 348 299 298 330 334 316 320 327 290 302 325 294 223 59 81 104 79 46 114 119 71 52 65 79 73 76 51 16 2 354 349 346 345 346 345 344 346 349 353 1 7 3 347 356 7 17 20 21 22 24 28 31 33 35 35 37 38 38 37 35 31
355 9 21 23 23 15 349 342 346 356 31 42 54 55 27 21 21 8 4 8 12 14 20 33 16 355 355 331 316 338 352 336 315 323 323 322 327 326 174 36 69 94 87 65 94 92 74 72 81 72 71 58 18 6 0 355 352 352 350 349 349 348 348 351 357 4 7 359 341 346 356 3 4 5 9 16 22 25 25 24 26 28 29 27 25 22 17
3 10 16 15 11 6 358 356 6 37 52 42 43 47 32 23 25 12 353 357 14 18 12 4 346 344 352 354 328 332 343 337 308 292 306 316 319 326 4 41 64 76 74 54 39 43 67 86 74 48 45 19 358 355 354 352 353 355 355 353 353 354 353 354 354 351 346 328 319 336 354 1 359 358 3 8 11 14 15 14 16 21 22 21 17 13 12
354 357 1 2 0 3 9 21 37 46 44 37 37 39 29 17 17 13 6 6 19 1 352 347 341 338 341 339 315 297 311 322 310 276 269 310 332 341 358 66 65 66 77 53 32 48 77 77 67 52 23 358 351 351 352 351 350 354 358 359 359 359 359 358 353 344 340 339 339 346 357 2 1 0 2 4 4 4 3 4 7 12 15 17 17 13 10
342 340 342 350 359 10 21 28 31 32 33 32 32 33 17 3 359 3 16 22 346 333 345 352 345 319 315 318 308 283 291 316 318 286 262 312 340 345 355 64 42 58 83 53 25 56 70 55 60 50 359 351 349 351 353 351 349 353 360 4 3 4 6 7 7 3 357 355 356 358 1 3 2 2 2 1 359 356 354 358 4 9 12 15 15 10 6
352 342 318 354 13 21 28 25 20 21 33 27 16 12 1 3 13 13 345 340 339 337 342 346 340 327 323 328 324 299 293 307 308 284 284 332 341 348 39 58 36 62 98 65 39 58 60 47 50 350 342 346 348 350 352 351 350 355 3 8 8 9 12 14 17 18 10 5 4 3 3 4 3 1 358 357 358 359 359 1 5 9 11 12 9 6 6
43 39 48 43 20 16 21 18 14 24 44 24 13 28 344 325 341 355 323 329 342 335 326 332 336 331 322 323 322 308 299 309 312 305 323 348 347 358 50 52 38 63 86 62 53 70 73 68 51 346 345 347 349 351 353 354 354 357 3 9 13 16 19 22 25 27 26 25 23 17 12 9 7 4 4 6 11 17 19 16 14 14 13 11 8 6 8
52 37 35 43 20 9 15 25 15 25 44 14 4 29 312 300 309 302 298 305 309 308 310 318 323 315 301 303 303 285 282 317 331 330 326 340 11 35 42 46 52 62 67 65 66 71 69 52 12 353 350 348 348 350 353 356 357 358 2 8 15 19 21 23 26 28 29 31 31 28 26 25 21 21 24 25 24 26 26 26 27 26 21 19 18 17 18
58 39 36 69 37 9 23 54 16 9 51 20 337 308 280 283 282 280 288 297 300 301 305 310 311 305 298 300 297 281 289 310 329 343 337 344 36 45 30 42 50 42 51 65 57 40 45 27 353 345 344 344 346 350 355 359 2 5 7 9 14 18 20 23 27 29 30 30 29 28 31 33 31 31 32 31 30 30 29 29 30 30 27 27 28 27 26
61 47 52 80 52 13 32 69 358 323 307 314 316 309 300 296 291 291 298 302 299 299 304 308 305 295 280 274 280 294 305 315 344 355 351 6 64 42 35 54 52 33 47 65 39 3 350 347 340 338 338 341 346 352 357 1 6 9 9 10 13 17 19 22 25 28 29 30 30 30 32 34 34 35 34 32 31 31 30 30 31 30 27 27 27 26 25
58 45 42 59 61 31 20 346 325 319 317 318 318 316 313 304 295 301 313 317 310 305 306 308 308 304 280 252 248 292 327 343 4 4 1 20 26 7 26 52 48 28 49 67 33 322 316 329 330 331 336 342 347 352 357 1 4 6 9 11 13 15 17 19 21 24 27 29 31 33 34 33 33 33 32 32 31 29 29 31 30 28 26 24 23 22 21
65 62 53 55 94 66 347 329 312 312 327 332 331 330 330 320 311 317 328 329 322 317 311 295 280 294 294 258 229 12 4 3 13 15 20 30 29 21 41 51 34 17 30 77 262 298 316 323 327 331 338 346 350 352 357 1 2 3 7 10 10 11 15 17 19 22 25 26 28 31 31 30 31 32 32 34 35 33 32 31 26 22 22 23 20 18 17
59 61 50 42 44 351 338 336 317 308 333 342 343 343 341 331 326 334 342 337 329 329 334 310 230 263 302 327 21 37 28 26 29 25 27 30 25 19 45 52 34 323 309 304 305 311 318 325 332 335 339 347 352 354 356 360 1 2 8 12 11 12 15 17 18 20 22 22 24 27 26 26 28 30 29 29 29 26 25 23 20 20 22 24 22 21 19
54 60 47 39 35 9 349 349 342 323 334 339 339 342 342 336 333 339 344 340 336 342 4 28 277 302 352 22 30 18 345 13 41 52 47 35 24 35 46 46 260 273 303 310 313 317 323 331 337 337 337 345 352 354 355 360 2 2 6 12 13 13 15 16 17 20 20 19 18 19 19 20 22 22 21 21 19 14 13 15 17 19 22 22 21 21 19
55 59 37 30 28 20 12 7 350 337 339 342 343 345 347 344 341 344 348 352 357 8 4 319 355 42 63 41 18 349 343 25 46 44 19 11 40 62 45 277 291 310 312 310 313 323 332 337 338 336 337 344 350 351 353 359 3 3 6 11 13 13 14 15 16 18 20 19 18 17 17 18 19 18 16 15 12 12 18 22 21 22 23 22 19 18 18